Weather WX

World > North America > United States > North Carolina

Lasker, North Carolina Regional Weather

Lat: 36.35N, Lon: 77.31W
Wx Zone: NCZ012
Warning FLW WEATHER ALERT - (More Info. Click Here) Warning
Feedback

Lasker, NC Regional Weather

Expires:201907171500;;784003
ASUS41 KAKQ 171415
RWRAKQ

REGIONAL WEATHER ROUNDUP
NATIONAL WEATHER SERVICE WAKEFIELD VA
1000 AM EDT WED JUL 17 2019

Note: "fair" indicates few or no clouds below 12,000 feet with no
significant weather and/or obstructions to visibility. * = Denotes
station may not report precipitation (e.g., rain,snow,etc.),
thunder or fog.


NCZ012>017-030>032-171500-
NORTH CENTRAL AND EASTERN NORTH CAROLINA
  
CITY           SKY/WX    TMP DP  RH WIND       PRES   REMARKS
ROANOKE RAPIDS FAIR      82  81  94 SW8       30.06S HX  95           
RALEIGH        PTSUNNY   86  75  69 SW7       30.08S HX  95           
ELIZABETH CITY FAIR      88  77  69 SW10      30.07S HX 100           
AHOSKIE*       FAIR      84  78  82 SW6       30.06S HX  95           
EDENTON*       FAIR      88  79  74 SW8       30.08F HX 102           
CURRITUCK*     FAIR      86  77  75 MISG      30.06F HX  97           
KILL DEVIL HLS FAIR      84  76  75 S3        30.07F                  
MANTEO         FAIR      85  76  74 SW9       30.09S HX  95           
CAPE HATTERAS  FAIR      86  80  82 SW8       30.10S HX 101           
TARBORO*       NOT AVBL                                               
GOLDSBORO      FAIR      87  76  68 S8        30.07F HX  98           
WASHINGTON     FAIR      88  74  63 SW7       30.08F HX  97           
GREENVILLE     FAIR      88  77  70 SW8       30.09F HX 100           
NEW BERN       FAIR      86  79  79 SW7       30.10F HX  99           
WILMINGTON     FAIR      87  76  69 S8        30.10F HX  97           
$$


SKY/WX - Weather  TMP - Temperature  DP - Dew Point  RH - Relative Humidity
WIND - Wind Direction/Speed PRES - Barometric Pressure VSB - Visibility
WCI - Wind Chill Index E13G22 Wind - East Wind 13 mph/Gusts of 22 mph